Location: Unspecified
(43.4680°N, 87.1740°E)
Time: 15:07:21
(UTC+00:00)

Okean 2 - Pass Details

Date: 05 August 2021
Orbit: 558 x 577 km, 82.5° (Epoch: 19 September)

Event Time Altitude Azimuth Distance (km) Brightness Sun altitude
Rises 20:26:39 0° 333° (NNW) 2,799 7.3 -22.9°
Reaches altitude 10° 20:29:32 10° 312° (NW) 1,892 6.1 -22.6°
Enters shadow 20:30:35 14° 299° (WNW) 1,670 5.7 -22.5°
